This is the latest recevied weather packets stored in our database for station/object AD0YN. If no packets are shown the sender has not sent any weather packets the latest 10 day(s).
| Time | Temp. | Humidity | Pressure | Rain* | Wind** | Luminosity | Snow |
|---|---|---|---|---|---|---|---|
| 1778078137 | 12.22° C | 43% | 1017.5 hPa | 0 mm | - | 480 W/m² | - |
| 1778077835 | 12.22° C | 47% | 1017.6 hPa | 0 mm | - | 466 W/m² | - |
| 1778077532 | 11.67° C | 47% | 1017.6 hPa | 0 mm | - | 288 W/m² | - |
| 1778077231 | 11.67° C | 49% | 1017.3 hPa | 0 mm | - | 326 W/m² | - |
| 1778076928 | 11.67° C | 48% | 1017.6 hPa | 0 mm | - | 335 W/m² | - |
| 1778076626 | 11.67° C | 50% | 1017.5 hPa | 0 mm | - | 362 W/m² | - |
| 1778076323 | 11.67° C | 48% | 1017.4 hPa | 0 mm | - | 500 W/m² | - |
| 1778076021 | 11.67° C | 51% | 1017.1 hPa | 0 mm | - | 517 W/m² | - |
| 1778075717 | 11.11° C | 49% | 1017.3 hPa | 0 mm | - | 362 W/m² | - |
| 1778075414 | 10.56° C | 52% | 1017.2 hPa | 0 mm | - | 293 W/m² | - |
| 1778075110 | 10.56° C | 50% | 1017 hPa | 0 mm | - | 251 W/m² | - |
| 1778074806 | 10.56° C | 52% | 1016.9 hPa | 0 mm | - | 199 W/m² | - |
| 1778074504 | 10.56° C | 50% | 1017 hPa | 0 mm | - | 229 W/m² | - |
| 1778074200 | 10.56° C | 52% | 1017.2 hPa | 0 mm | - | 346 W/m² | - |
| 1778073897 | 10.56° C | 52% | 1016.9 hPa | 0 mm | - | 234 W/m² | - |
| 1778073595 | 10.56° C | 53% | 1016.8 hPa | 0 mm | - | 219 W/m² | - |
| 1778073291 | 10.56° C | 52% | 1016.6 hPa | 0 mm | - | 300 W/m² | - |
| 1778072988 | 10° C | 56% | 1016.7 hPa | 0 mm | - | 297 W/m² | - |
| 1778072685 | 9.44° C | 56% | 1016.4 hPa | 0 mm | - | 178 W/m² | - |
| 1778072383 | 9.44° C | 58% | 1016.4 hPa | 0 mm | - | 163 W/m² | - |
| 1778072081 | 9.44° C | 56% | 1016.6 hPa | 0 mm | - | 126 W/m² | - |
| 1778071778 | 9.44° C | 57% | 1016.4 hPa | 0 mm | - | 162 W/m² | - |
| 1778071476 | 8.89° C | 63% | 1016.5 hPa | 0 mm | - | 202 W/m² | - |
| 1778071174 | 8.89° C | 63% | 1016.3 hPa | 0 mm | - | 95 W/m² | - |
| 1778070871 | 8.33° C | 62% | 1016.1 hPa | 0 mm | - | 89 W/m² | - |
* Rain latest hour (hover to see other rain measurements)
** Current wind speed in m/s (hover to see current wind gust speed)